H1 CPF 2 NER 2022 10 24 9 297 01 glonass134 H2 1407501 9134 40315 2022 10 24 0 0 0 2022 10 27 23 45 0 900 1 1 0 0 0 1 H9 10 0 59876 0.00000 0 -16798531.286 2734790.440 -19010481.480 10 0 59876 900.00000 0 -18879436.009 1943439.221 -17063472.437 10 0 59876 1800.00000 0 -20763818.973 1383324.461 -14785571.064 10 0 59876 2700.00000 0 -22394436.416 1033335.072 -12221124.351 10 0 59876 3600.00000 0 -23721347.688 862130.301 -9419965.426 10 0 59876 4500.00000 0 -24703893.701 829710.032 -6436444.118 10 0 59876 5400.00000 0 -25312304.179 889349.097 -3328375.395 10 0 59876 6300.00000 0 -25528868.508 989813.112 -155925.759 10 0 59876 7200.00000 0 -25348623.086 1077762.139 3019541.255 10 0 59876 8100.00000 0 -24779527.996 1100241.055 6136638.976 10 0 59876 9000.00000 0 -23842126.790 1007152.297 9135129.274 10 0 59876 9900.00000 0 -22568704.227 753607.696 11957070.470 10 0 59876 10800.00000 0 -21001977.163 302061.266 14547920.758 10 0 59876 11700.00000 0 -19193372.705 -375866.103 16857577.255 10 0 59876 12600.00000 0 -17200964.333 -1297946.426 18841331.989 10 0 59876 13500.00000 0 -15087150.510 -2470349.594 20460727.667 10 0 59876 14400.00000 0 -12916170.595 -3887136.248 21684297.768 10 0 59876 15300.00000 0 -10751559.608 -5530261.397 22488177.285 10 0 59876 16200.00000 0 -8653645.890 -7370090.960 22856572.592 10 0 59876 17100.00000 0 -6677194.191 -9366412.490 22782081.063 10 0 59876 18000.00000 0 -4869291.224 -11469900.978 22265853.402 10 0 59876 18900.00000 0 -3267561.047 -13623981.748 21317594.233 10 0 59876 19800.00000 0 -1898784.626 -15767015.741 19955399.129 10 0 59876 20700.00000 0 -777981.676 -17834718.326 18205429.187 10 0 59876 21600.00000 0 92006.006 -19762712.485 16101427.244 10 0 59876 22500.00000 0 720411.231 -21489110.543 13684082.978 10 0 59876 23400.00000 0 1127921.303 -22957016.385 11000257.398 10 0 59876 24300.00000 0 1345566.390 -24116842.507 8102080.410 10 0 59876 25200.00000 0 1413162.746 -24928343.168 5045938.175 10 0 59876 26100.00000 0 1377376.640 -25362276.191 1891369.966 10 0 59876 27000.00000 0 1289491.660 -25401621.354 -1300103.405 10 0 59876 27900.00000 0 1202975.409 -25042301.995 -4466195.542 10 0 59876 28800.00000 0 1170950.746 -24293377.720 -7545089.207 10 0 59876 29700.00000 0 1243681.250 -23176699.013 -10476663.694 10 0 59876 30600.00000 0 1466180.234 -21726037.872 -13203688.705 10 0 59876 31500.00000 0 1876047.252 -19985731.488 -15672959.198 10 0 59876 32400.00000 0 2501626.116 -18008897.017 -17836347.335 10 0 59876 33300.00000 0 3360564.281 -15855293.976 -19651749.672 10 0 59876 34200.00000 0 4458835.749 -13588925.773 -21083910.316 10 0 59876 35100.00000 0 5790269.413 -11275482.634 -22105103.909 10 0 59876 36000.00000 0 7336602.781 -8979734.348 -22695665.571 10 0 59876 36900.00000 0 9068058.370 -6762982.821 -22844358.464 10 0 59876 37800.00000 0 10944417.753 -4680680.968 -22548573.152 10 0 59876 38700.00000 0 12916547.274 -2780316.691 -21814356.532 10 0 59876 39600.00000 0 14928310.533 -1099648.853 -20656271.461 10 0 59876 40500.00000 0 16918786.815 334633.341 -19097091.502 10 0 59876 41400.00000 0 18824702.298 1507774.377 -17167338.264 10 0 59876 42300.00000 0 20582972.269 2417306.823 -14904671.657 10 0 59876 43200.00000 0 22133248.598 3072884.561 -12353145.933 10 0 59876 44100.00000 0 23420366.846 3495604.971 -9562346.667 10 0 59876 45000.00000 0 24396591.934 3716851.225 -6586425.868 10 0 59876 45900.00000 0 25023570.071 3776705.610 -3483053.999 10 0 59876 46800.00000 0 25273906.967 3722002.156 -312308.960 10 0 59876 47700.00000 0 25132307.983 3604101.422 2864476.895 10 0 59876 48600.00000 0 24596234.002 3476481.396 5985890.208 10 0 59876 49500.00000 0 23676046.728 3392245.644 8991608.897 10 0 59876 50400.00000 0 22394637.961 3401652.966 11823551.746 10 0 59876 51300.00000 0 20786558.434 3549771.621 14426984.502 10 0 59876 52200.00000 0 18896682.044 3874355.997 16751562.574 10 0 59876 53100.00000 0 16778460.094 4404034.295 18752291.544 10 0 59876 54000.00000 0 14491836.709 5156883.211 20390388.278 10 0 59876 54900.00000 0 12100910.218 6139449.819 21634027.067 10 0 59876 55800.00000 0 9671435.701 7346262.724 22458957.041 10 0 59876 56700.00000 0 7268270.366 8759854.745 22848979.213 10 0 59876 57600.00000 0 4952865.993 10351298.594 22796273.672 10 0 59876 58500.00000 0 2780911.161 12081235.918 22301569.772 10 0 59876 59400.00000 0 800220.229 13901359.795 21374154.733 10 0 59876 60300.00000 0 -951043.595 15756291.708 20031718.708 10 0 59876 61200.00000 0 -2445736.893 17585777.169 18300037.260 10 0 59876 62100.00000 0 -3668638.752 19327110.258 16212495.220 10 0 59876 63000.00000 0 -4616848.943 20917686.896 13809458.959 10 0 59876 63900.00000 0 -5299663.785 22297580.216 11137507.491 10 0 59876 64800.00000 0 -5737934.012 23412029.528 8248535.838 10 0 59876 65700.00000 0 -5962931.054 24213737.026 5198747.325 10 0 59876 66600.00000 0 -6014769.362 24664873.681 2047554.313 10 0 59876 67500.00000 0 -5940451.940 24738707.615 -1143590.638 10 0 59876 68400.00000 0 -5791622.911 24420783.987 -4312409.182 10 0 59876 69300.00000 0 -5622124.070 23709604.489 -7397031.657 10 0 59876 70200.00000 0 -5485461.229 22616776.173 -10337225.458 10 0 59876 71100.00000 0 -5432290.344 21166622.277 -13075591.156 10 0 59876 72000.00000 0 -5508032.570 19395271.182 -15558700.799 10 0 59876 72900.00000 0 -5750721.713 17349262.259 -17738154.424 10 0 59876 73800.00000 0 -6189177.274 15083728.178 -19571532.833 10 0 59876 74700.00000 0 -6841581.764 12660231.435 -21023227.185 10 0 59876 75600.00000 0 -7714523.244 10144347.286 -22065129.145 10 0 59876 76500.00000 0 -8802543.659 7603095.630 -22677168.550 10 0 59876 77400.00000 0 -10088211.575 5102330.276 -22847689.043 10 0 59876 78300.00000 0 -11542715.437 2704194.993 -22573655.756 10 0 59876 79200.00000 0 -13126951.322 464752.130 -21860692.569 10 0 59876 80100.00000 0 -14793058.334 -1568118.329 -20722949.966 10 0 59876 81000.00000 0 -16486336.184 -3356463.566 -19182807.746 10 0 59876 81900.00000 0 -18147463.788 -4873576.337 -17270419.897 10 0 59876 82800.00000 0 -19714925.498 -6104834.904 -15023111.841 10 0 59876 83700.00000 0 -21127543.348 -7048032.638 -12484642.788 10 0 59876 84600.00000 0 -22327009.791 -7713186.831 -9704348.221 10 0 59876 85500.00000 0 -23260315.682 -8121837.673 -6736179.626 10 0 59877 0.00000 0 -23881973.027 -8305869.492 -3637660.436 10 0 59877 900.00000 0 -24155941.110 -8305905.827 -468776.505 10 0 59877 1800.00000 0 -24057176.021 -8169346.966 2709173.641 10 0 59877 2700.00000 0 -23572741.183 -7948133.527 5834752.896 10 0 59877 3600.00000 0 -22702432.582 -7696329.928 8847558.143 10 0 59877 4500.00000 0 -21458893.594 -7467629.123 11689371.477 10 0 59877 5400.00000 0 -19867214.682 -7312882.726 14305268.902 10 0 59877 6300.00000 0 -17964034.178 -7277759.487 16644666.602 10 0 59877 7200.00000 0 -15796176.639 -7400629.571 18662285.888 10 0 59877 8100.00000 0 -13418883.895 -7710762.979 20319019.569 10 0 59877 9000.00000 0 -10893710.312 -8226917.545 21582684.075 10 0 59877 9900.00000 0 -8286167.573 -8956376.230 22428643.501 10 0 59877 10800.00000 0 -5663214.363 -9894475.196 22840293.814 10 0 59877 11700.00000 0 -3090692.957 -11024644.276 22809397.633 10 0 59877 12600.00000 0 -630817.253 -12318960.460 22336262.313 10 0 59877 13500.00000 0 1660184.907 -13739194.009 21429756.596 10 0 59877 14400.00000 0 3734178.046 -15238306.255 20107163.770 10 0 59877 15300.00000 0 5552886.548 -16762339.073 18393872.086 10 0 59877 16200.00000 0 7089249.437 -18252619.145 16322906.281 10 0 59877 17100.00000 0 8328305.172 -19648186.249 13934307.083 10 0 59877 18000.00000 0 9267568.396 -20888344.399 11274368.906 10 0 59877 18900.00000 0 9916881.858 -21915228.560 8394749.109 10 0 59877 19800.00000 0 10297748.919 -22676277.998 5351465.237 10 0 59877 20700.00000 0 10442174.284 -23126510.370 2203799.721 10 0 59877 21600.00000 0 10391062.042 -23230498.453 -986866.145 10 0 59877 22500.00000 0 10192239.503 -22963963.661 -4158265.019 10 0 59877 23400.00000 0 9898191.858 -22314916.628 -7248477.641 10 0 59877 24300.00000 0 9563605.608 -21284294.619 -10197162.162 10 0 59877 25200.00000 0 9242827.227 -19886067.242 -12946752.471 10 0 59877 26100.00000 0 8987347.251 -18146805.136 -15443599.916 10 0 59877 27000.00000 0 8843418.856 -16104729.585 -17639034.348 10 0 59877 27900.00000 0 8849913.830 -13808283.437 -19490322.429 10 0 59877 28800.00000 0 9036508.274 -11314284.391 -20961503.635 10 0 59877 29700.00000 0 9422275.635 -8685739.302 -22024087.523 10 0 59877 30600.00000 0 10014746.781 -5989412.212 -22657599.099 10 0 59877 31500.00000 0 10809476.340 -3293248.983 -22849962.535 10 0 59877 32400.00000 0 11790132.707 -663766.536 -22597717.167 10 0 59877 33300.00000 0 12929106.664 1836484.375 -21906063.136 10 0 59877 34200.00000 0 14188611.585 4151277.814 -20788737.499 10 0 59877 35100.00000 0 15522227.583 6232795.899 -19267724.924 10 0 59877 36000.00000 0 16876823.587 8043352.028 -17372810.130 10 0 59877 36900.00000 0 18194775.757 9556684.830 -15140982.115 10 0 59877 37800.00000 0 19416388.715 10758771.973 -12615702.832 10 0 59877 38700.00000 0 20482418.063 11648133.077 -9846055.176 10 0 59877 39600.00000 0 21336588.785 12235612.149 -6885787.367 10 0 59877 40500.00000 0 21928004.788 12543651.555 -3792272.287 10 0 59877 41400.00000 0 22213349.640 12605090.379 -625401.770 10 0 59877 42300.00000 0 22158787.490 12461539.330 2553563.188 10 0 59877 43200.00000 0 21741485.732 12161401.622 5683164.816 10 0 59877 44100.00000 0 20950696.635 11757623.388 8702921.924 10 0 59877 45000.00000 0 19788353.372 11305268.038 11554482.647 10 0 59877 45900.00000 0 18269155.691 10859015.855 14182735.709 10 0 59877 46800.00000 0 16420141.239 10470692.935 16536860.220 10 0 59877 47700.00000 0 14279759.470 10186932.230 18571295.046 10 0 59877 48600.00000 0 11896485.136 10047063.935 20246610.425 10 0 59877 49500.00000 0 9327026.945 10081323.145 21530266.074 10 0 59877 50400.00000 0 6634203.507 10309449.824 22397241.837 10 0 59877 51300.00000 0 3884572.177 10739740.264 22830529.030 10 0 59877 52200.00000 0 1145906.604 11368590.956 22821472.788 10 0 59877 53100.00000 0 -1515374.505 12180555.733 22369957.999 10 0 59877 54000.00000 0 -4036722.629 13148916.048 21484433.999 10 0 59877 54900.00000 0 -6361815.534 14236743.051 20181775.793 10 0 59877 55800.00000 0 -8442656.834 15398409.496 18486982.468 10 0 59877 56700.00000 0 -10241331.688 16581490.400 16432716.408 10 0 59877 57600.00000 0 -11731344.872 17728974.483 14058690.108 10 0 59877 58500.00000 0 -12898484.332 18781694.550 11410910.581 10 0 59877 59400.00000 0 -13741172.987 19680874.831 8540794.571 10 0 59877 60300.00000 0 -14270292.985 20370687.351 5504170.860 10 0 59877 61200.00000 0 -14508489.005 20800708.106 2360188.976 10 0 59877 62100.00000 0 -14488979.756 20928167.283 -829843.953 10 0 59877 63000.00000 0 -14253928.192 20719896.015 -4003674.376 10 0 59877 63900.00000 0 -13852440.351 20153884.781 -7099336.078 10 0 59877 64800.00000 0 -13338279.167 19220385.166 -10056380.423 10 0 59877 65700.00000 0 -12767392.147 17922506.364 -12817076.854 10 0 59877 66600.00000 0 -12195360.016 16276279.809 -15327558.001 10 0 59877 67500.00000 0 -11674876.764 14310188.421 -17538885.232 10 0 59877 68400.00000 0 -11253369.920 12064180.139 -19408012.486 10 0 59877 69300.00000 0 -10970863.423 9588207.743 -20898628.681 10 0 59877 70200.00000 0 -10858174.513 6940357.079 -21981862.114 10 0 59877 71100.00000 0 -10935521.148 4184643.164 -22636833.525 10 0 59877 72000.00000 0 -11211598.386 1388567.404 -22851047.895 10 0 59877 72900.00000 0 -11683161.696 -1379461.343 -22620618.745 10 0 59877 73800.00000 0 -12335133.371 -4052734.068 -21950322.122 10 0 59877 74700.00000 0 -13141225.817 -6568768.901 -20853480.945 10 0 59877 75600.00000 0 -14065053.763 -8871654.210 -19351683.673 10 0 59877 76500.00000 0 -15061686.956 -10914111.629 -17474344.310 10 0 59877 77400.00000 0 -16079576.729 -12659195.332 -15258113.655 10 0 59877 78300.00000 0 -17062774.497 -14081559.490 -12746154.326 10 0 59877 79200.00000 0 -17953348.532 -15168244.079 -9987294.327 10 0 59877 80100.00000 0 -18693897.429 -15918949.256 -7035076.109 10 0 59877 81000.00000 0 -19230055.177 -16345789.784 -3946719.667 10 0 59877 81900.00000 0 -19512883.395 -16472542.410 -782019.528 10 0 59877 82800.00000 0 -19501051.344 -16333419.737 2397803.360 10 0 59877 83700.00000 0 -19162713.277 -15971423.530 5531273.423 10 0 59877 84600.00000 0 -18477005.422 -15436347.318 8557834.271 10 0 59877 85500.00000 0 -17435100.540 -14782512.260 11419002.940 10 0 59878 0.00000 0 -16040776.356 -14066330.989 14059483.428 10 0 59878 900.00000 0 -14310472.981 -13343800.371 16428220.869 10 0 59878 1800.00000 0 -12272838.054 -12668028.283 18479373.812 10 0 59878 2700.00000 0 -9967774.538 -12086895.662 20173191.983 10 0 59878 3600.00000 0 -7445030.561 -11640951.808 21476780.040 10 0 59878 4500.00000 0 -4762386.801 -11361630.107 22364734.791 10 0 59878 5400.00000 0 -1983514.085 -11269858.906 22819643.655 10 0 59878 6300.00000 0 824412.732 -11375126.155 22832434.553 10 0 59878 7200.00000 0 3593248.122 -11675038.163 22402569.731 10 0 59878 8100.00000 0 6256453.626 -12155392.589 21538078.508 10 0 59878 9000.00000 0 8751614.731 -12790764.700 20255426.606 10 0 59878 9900.00000 0 11022793.202 -13545584.603 18579222.555 10 0 59878 10800.00000 0 13022617.392 -14375662.406 16541764.649 10 0 59878 11700.00000 0 14714023.140 -15230099.154 14182435.054 10 0 59878 12600.00000 0 16071571.610 -16053504.433 11546950.939 10 0 59878 13500.00000 0 17082287.853 -16788427.827 8686485.670 10 0 59878 14400.00000 0 17745983.682 -17377901.426 5656676.212 10 0 59878 15300.00000 0 18075050.170 -17767984.944 2516535.927 10 0 59878 16200.00000 0 18093727.871 -17910204.079 -672705.614 10 0 59878 17100.00000 0 17836885.438 -17763776.622 -3848812.052 10 0 59878 18000.00000 0 17348358.727 -17297529.534 -6949773.527 10 0 59878 18900.00000 0 16678921.868 -16491423.214 -9915037.734 10 0 59878 19800.00000 0 15883977.871 -15337616.084 -12686712.535 10 0 59878 20700.00000 0 15021068.659 -13841022.632 -15210714.382 10 0 59878 21600.00000 0 14147312.194 -12019340.003 -17437838.357 10 0 59878 22500.00000 0 13316877.265 -9902541.374 -19324727.493 10 0 59878 23400.00000 0 12578604.519 -7531857.471 -20834721.565 10 0 59878 24300.00000 0 11973875.464 -4958289.454 -21938568.612 10 0 59878 25200.00000 0 11534819.928 -2240716.337 -22614985.671 10 0 59878 26100.00000 0 11282937.346 556322.870 -22851058.665 10 0 59878 27000.00000 0 11228189.077 3365078.870 -22642475.008 10 0 59878 27900.00000 0 11368598.430 6117170.984 -21993585.964 10 0 59878 28800.00000 0 11690373.351 8746187.693 -20917299.264 10 0 59878 29700.00000 0 12168544.453 11190201.156 -19434805.767 10 0 59878 30600.00000 0 12768089.476 13394092.287 -17575147.053 10 0 59878 31500.00000 0 13445494.970 15311591.293 -15374633.717 10 0 59878 32400.00000 0 14150688.023 16906951.091 -12876126.746 10 0 59878 33300.00000 0 14829255.713 18156186.531 -10128196.683 10 0 59878 34200.00000 0 15424858.457 19047830.534 -7184177.409 10 0 59878 35100.00000 0 15881735.702 19583178.478 -4101133.009 10 0 59878 36000.00000 0 16147199.062 19776013.232 -938757.564 10 0 59878 36900.00000 0 16174008.825 19651824.557 2241771.218 10 0 59878 37800.00000 0 15922534.920 19246557.300 5378963.094 10 0 59878 38700.00000 0 15362612.508 18604941.884 8412189.466 10 0 59878 39600.00000 0 14475015.136 17778477.490 11282839.043 10 0 59878 40500.00000 0 13252484.066 16823152.263 13935434.057 10 0 59878 41400.00000 0 11700270.602 15796995.377 16318686.908 10 0 59878 42300.00000 0 9836168.070 14757562.401 18386478.213 10 0 59878 43200.00000 0 7690030.745 13759458.031 20098738.740 10 0 59878 44100.00000 0 5302797.831 12851998.598 21422219.323 10 0 59878 45000.00000 0 2725060.687 12077111.141 22331134.619 10 0 59878 45900.00000 0 15230.037 11467556.312 22807668.656 10 0 59878 46800.00000 0 -2762623.738 11045549.308 22842332.264 10 0 59878 47700.00000 0 -5541170.378 10821837.018 22434164.719 10 0 59878 48600.00000 0 -8252362.619 10795271.081 21590774.533 10 0 59878 49500.00000 0 -10830018.724 10952896.241 20328216.873 10 0 59878 50400.00000 0 -13212338.685 11270552.185 18670707.967 10 0 59878 51300.00000 0 -15344250.173 11713965.543 16650179.833 10 0 59878 52200.00000 0 -17179486.466 12240287.970 14305681.754 10 0 59878 53100.00000 0 -18682308.862 12800017.002 11682638.228 10 0 59878 54000.00000 0 -19828800.441 13339219.518 8831976.237 10 0 59878 54900.00000 0 -20607675.561 13801964.035 5809137.860 10 0 59878 55800.00000 0 -21020569.654 14132858.291 2672997.241 10 0 59878 56700.00000 0 -21081796.080 14279583.275 -515296.583 10 0 59878 57600.00000 0 -20817579.646 14195314.249 -3693527.303 10 0 59878 58500.00000 0 -20264799.131 13840923.712 -6799644.122 10 0 59878 59400.00000 0 -19469292.668 13186870.251 -9772993.611 10 0 59878 60300.00000 0 -18483798.940 12214690.699 -12555524.380 10 0 59878 61200.00000 0 -17365623.073 10918030.221 -15092938.821 10 0 59878 62100.00000 0 -16174128.033 9303165.069 -17335767.560 10 0 59878 63000.00000 0 -14968159.670 7388994.783 -19240344.248 10 0 59878 63900.00000 0 -13803516.061 5206503.791 -20769660.717 10 0 59878 64800.00000 0 -12730569.340 2797715.099 -21894085.593 10 0 59878 65700.00000 0 -11792141.035 214180.518 -22591932.718 10 0 59878 66600.00000 0 -11021720.418 -2484928.502 -22849869.118 10 0 59878 67500.00000 0 -10442100.054 -5235048.800 -22663155.931 10 0 59878 68400.00000 0 -10064484.478 -7968678.573 -22035719.135 10 0 59878 69300.00000 0 -9888107.464 -10617952.938 -20980050.433 10 0 59878 70200.00000 0 -9900371.567 -13117234.906 -19516941.929 10 0 59878 71100.00000 0 -10077501.609 -15405614.692 -17675061.329 10 0 59878 72000.00000 0 -10385682.218 -17429214.523 -15490377.296 10 0 59878 72900.00000 0 -10782629.488 -19143204.887 -13005447.252 10 0 59878 73800.00000 0 -11219529.004 -20513450.500 -10268582.162 10 0 59878 74700.00000 0 -11643257.588 -21517719.817 -7332905.104 10 0 59878 75600.00000 0 -11998794.703 -22146410.330 -4255321.951 10 0 59878 76500.00000 0 -12231722.026 -22402761.873 -1095423.972 10 0 59878 77400.00000 0 -12290706.459 -22302551.238 2085656.771 10 0 59878 78300.00000 0 -12129862.798 -21873282.750 5226417.817 10 0 59878 79200.00000 0 -11710897.643 -21152909.892 8266160.855 10 0 59878 80100.00000 0 -11004945.227 -20188142.165 11146148.790 10 0 59878 81000.00000 0 -9994018.702 -19032408.029 13810724.360 10 0 59878 81900.00000 0 -8672016.124 -17743558.644 16208370.163 10 0 59878 82800.00000 0 -7045238.627 -16381407.418 18292690.956 10 0 59878 83700.00000 0 -5132398.037 -15005206.930 20023300.679 10 0 59878 84600.00000 0 -2964111.826 -13671167.218 21366598.206 10 0 59878 85500.00000 0 -581904.219 -12430117.783 22296417.596 10 0 59879 0.00000 0 1963247.589 -11325409.952 22794540.676 10 0 59879 900.00000 0 4612766.115 -10391145.988 22851062.096 10 0 59879 1800.00000 0 7302647.773 -9650810.284 22464598.551 10 0 59879 2700.00000 0 9965875.748 -9116358.322 21642337.815 10 0 59879 3600.00000 0 12534970.389 -8787803.987 20399924.184 10 0 59879 4500.00000 0 14944574.216 -8653323.328 18761180.888 10 0 59879 5400.00000 0 17133964.854 -8689872.108 16757672.576 10 0 59879 6300.00000 0 19049391.494 -8864292.834 14428114.160 10 0 59879 7200.00000 0 20646136.784 -9134866.097 11817635.547 10 0 59879 8100.00000 0 21890216.923 -9453241.768 8976915.002 10 0 59879 9000.00000 0 22759647.222 -9766668.807 5961196.967 10 0 59879 9900.00000 0 23245218.341 -10020429.014 2829213.246 10 0 59879 10800.00000 0 23350749.107 -10160370.472 -357971.047 10 0 59879 11700.00000 0 23092804.137 -10135431.513 -3538163.216 10 0 59879 12600.00000 0 22499887.600 -9900045.825 -6649275.131 10 0 59879 13500.00000 0 21611147.326 -9416324.069 -9630555.746 10 0 59879 14400.00000 0 20474644.795 -8655916.829 -12423797.733 10 0 59879 15300.00000 0 19145265.507 -7601477.530 -14974492.428 10 0 59879 16200.00000 0 17682359.839 -6247661.340 -17232908.668 10 0 59879 17100.00000 0 16147215.971 -4601616.347 -19155073.016 10 0 59879 18000.00000 0 14600473.408 -2682945.470 -20703631.250 10 0 59879 18900.00000 0 13099587.699 -523140.424 -21848574.067 10 0 59879 19800.00000 0 11696454.014 1835488.229 -22567813.175 10 0 59879 20700.00000 0 10435289.883 4341339.393 -22847597.344 10 0 59879 21600.00000 0 9350865.500 6935443.394 -22682761.629 10 0 59879 22500.00000 0 8467154.599 9553696.513 -22076806.486 10 0 59879 23400.00000 0 7796460.586 12129314.230 -21041806.932 10 0 59879 24300.00000 0 7339052.132 14595400.774 -19598155.245 10 0 59879 25200.00000 0 7083320.720 16887528.252 -17774143.782 10 0 59879 26100.00000 0 7006450.800 18946218.685 -15605397.428 10 0 59879 27000.00000 0 7075571.712 20719226.983 -13134167.817 10 0 59879 27900.00000 0 7249340.750 22163531.515 -10408503.798 10 0 59879 28800.00000 0 7479889.050 23246951.408 -7481314.791 10 0 59879 29700.00000 0 7715047.279 23949325.435 -4409345.363 10 0 59879 30600.00000 0 7900756.917 24263205.647 -1252080.704 10 0 59879 31500.00000 0 7983565.631 24194038.876 1929396.111 10 0 59879 32400.00000 0 7913102.148 23759830.429 5073573.727 10 0 59879 33300.00000 0 7644427.200 22990305.335 8119687.325 10 0 59879 34200.00000 0 7140162.487 21925603.017 11008877.004 10 0 59879 35100.00000 0 6372308.879 20614560.147 13685308.766 10 0 59879 36000.00000 0 5323677.888 19112652.971 16097237.848 10 0 59879 36900.00000 0 3988876.309 17479684.161 18197995.285 10 0 59879 37800.00000 0 2374802.061 15777309.405 19946880.005 10 0 59879 38700.00000 0 500629.058 14066505.374 21309940.416 10 0 59879 39600.00000 0 -1602720.238 12405083.097 22260631.133 10 0 59879 40500.00000 0 -3893595.255 10845348.989 22780332.621 10 0 59879 41400.00000 0 -6321091.280 9432009.922 22858723.586 10 0 59879 42300.00000 0 -8826918.715 8200409.125 22493998.250 10 0 59879 43200.00000 0 -11347593.052 7175166.391 21692923.162 10 0 59879 44100.00000 0 -13816857.244 6369279.816 20470730.772 10 0 59879 45000.00000 0 -16168237.816 5783727.606 18850849.826 10 0 59879 45900.00000 0 -18337629.813 5407587.820 16864475.644 10 0 59879 46800.00000 0 -20265803.436 5218672.433 14549986.350 10 0 59879 47700.00000 0 -21900727.477 5184650.383 11952214.490 10 0 59879 48600.00000 0 -23199611.486 5264613.261 9121586.564 10 0 59879 49500.00000 0 -24130579.617 5411018.075 6113146.171 10 0 59879 50400.00000 0 -24673904.081 5571924.789 2985479.506 10 0 59879 51300.00000 0 -24822744.511 5693433.052 -200435.493 10 0 59879 52200.00000 0 -24583360.556 5722213.240 -3382432.917 10 0 59879 53100.00000 0 -23974787.577 5608022.363 -6498390.348 10 0 59879 54000.00000 0 -23027988.697 5306095.533 -9487462.003 10 0 59879 54900.00000 0 -21784519.210 4779308.864 -12291287.309 10 0 59879 55800.00000 0 -20294760.660 4000019.517 -14855148.997 10 0 59879 56700.00000 0 -18615800.566 2951502.667 -17129056.277 10 0 59879 57600.00000 0 -16809048.962 1628922.804 -19068730.423 10 0 59879 58500.00000 0 -14937694.090 39797.202 -20636472.548 10 0 59879 59400.00000 0 -13064105.973 -1796068.564 -21801896.364 10 0 59879 60300.00000 0 -11247298.182 -3847170.370 -22542511.919 10 0 59879 61200.00000 0 -9540555.039 -6071395.271 -22844149.732 10 0 59879 62100.00000 0 -7989323.515 -8417564.809 -22701218.353 10 0 59879 63000.00000 0 -6629457.207 -10827366.539 -22116791.885 10 0 59879 63900.00000 0 -5485884.222 -13237592.200 -21102527.473 10 0 59879 64800.00000 0 -4571752.339 -15582588.701 -19678416.067 10 0 59879 65700.00000 0 -3888084.442 -17796819.586 -17872372.918 10 0 59879 66600.00000 0 -3423955.655 -19817430.514 -15719677.177 10 0 59879 67500.00000 0 -3157181.705 -21586712.698 -13262272.589 10 0 59879 68400.00000 0 -3055486.874 -23054362.940 -10547943.689 10 0 59879 69300.00000 0 -3078100.200 -24179447.664 -7629384.018 10 0 59879 70200.00000 0 -3177711.039 -24931990.968 -4563174.610 10 0 59879 71100.00000 0 -3302700.640 -25294122.479 -1408692.389 10 0 59879 72000.00000 0 -3399555.333 -25260739.021 1773030.726 10 0 59879 72900.00000 0 -3415359.820 -24839654.223 4920476.620 10 0 59879 73800.00000 0 -3300266.072 -24051231.175 7972816.083 10 0 59879 74700.00000 0 -3009834.743 -22927514.315 10871068.526 10 0 59879 75600.00000 0 -2507151.338 -21510897.108 13559225.303 10 0 59879 76500.00000 0 -1764628.857 -19852380.792 15985316.353 10 0 59879 77400.00000 0 -765421.459 -18009495.979 18102400.965 10 0 59879 78300.00000 0 495610.433 -16043972.454 19869464.917 10 0 59879 79200.00000 0 2011424.966 -14019252.569 21252207.843 10 0 59879 80100.00000 0 3762835.133 -11997950.064 22223706.403 10 0 59879 81000.00000 0 5719057.249 -10039358.352 22764940.925 10 0 59879 81900.00000 0 7838751.595 -8197110.446 22865175.239 10 0 59879 82800.00000 0 10071514.889 -6517086.946 22522181.736 10 0 59879 83700.00000 0 12359765.624 -5035658.576 21742306.161 10 0 59879 84600.00000 0 14640946.757 -3778336.504 20540369.232 10 0 59879 85500.00000 0 16849956.402 -2758887.294 18939405.021 99